[[{"header":{"parameterUnit":"m.s-1","parameterCategory":1,"la1":30.2991,"la2":30.254,"lo1":-89.0895,"lo2":-89.0444,"dy":0.0017,"dx":0.0017,"nx":28,"ny":28,"refTime":"2024-08-02T09:00:00:Z","depth":0,"parameterNumber":2,"parameterNumberName":"U-component_of_WINDS"},"data":[0,0,0,0,0,0,0,0,0,0,0,0,0,0,0,0,0,0,0,0,0,0,0,0,0,0,0,0,0,0,0,0,0,0,0,0,0,0,0,0,0,0,0,0,0,0,0,0,0,0,0,0,0,0,0,0,0,0,4.0039,4.004,0,4.0126,4.0127,4.0128,4.0061,4.0058,4.0056,4.0053,4.0146,4.0151,4.0156,0,0,0,0,0,0,0,0,0,0,0,0,0,3.9821,3.9825,4.0039,4.004,4.0041,4.0126,4.0127,4.0128,4.0062,4.0058,4.0055,4.0052,4.0145,4.0151,4.0157,0,0,0,0,0,0,0,0,0,0,0,0,0,3.9913,3.9827,4.0039,4.0018,4.0017,4.0126,4.0127,4.0128,4.0063,4.0058,4.0054,4.005,4.0143,4.015,4.0158,4.0292,0,0,4.0181,4.0185,0,0,0,0,0,0,0,0,3.9908,3.9921,4.002,4.002,4.0019,4.0078,4.0084,4.0184,4.0064,4.0046,4.0053,4.0048,4.0127,4.0136,4.0162,4.0297,4.0301,4.0182,4.0187,4.019,4.0192,0,0,0,0,0,0,0,3.9901,3.9917,4.0074,4.0022,4.0021,4.0006,4.0015,4.0103,4.011,4.0047,4.0042,4.0053,4.0126,4.0155,4.0164,4.0302,4.0182,4.0189,4.0194,4.0197,4.0554,4.0558,0,0,0,0,0,0,3.9896,3.9912,4.0071,4.0076,3.9951,4.0014,4.0023,4.0064,4.0109,4.0111,4.0057,4.005,4.0144,4.0155,4.0167,4.0329,4.019,4.0197,4.0202,4.0549,4.0555,4.056,0,0,0,0,0,0,3.9892,3.9911,4.0067,3.9993,4.0012,4.0022,4.0068,4.0068,4.0096,4.0116,4.0118,4.0084,4.0141,4.0156,4.0262,4.0331,4.0201,4.0208,4.0543,4.0551,4.0558,4.0653,0,0,0,0,0,0,3.9886,3.991,3.996,3.9994,4.0016,4.016,4.0073,4.0073,4.0109,4.0101,4.0142,4.0145,4.0138,4.0251,4.027,4.034,4.0214,4.0537,4.0547,4.0555,4.0644,4.0663,4.0679,0,0,0,0,0,3.9878,3.9984,3.9963,3.9982,4.0078,4.0164,4.0176,4.0165,4.0115,4.0166,4.0179,4.0144,4.032,4.0262,4.0283,4.0356,4.0533,4.0544,4.0555,4.0636,4.0659,4.0679,0,0,0,0,0,0,3.9959,3.9988,3.9965,4.0084,4.0122,4.0152,4.0216,4.0189,4.0243,4.0233,4.0218,4.0228,4.034,4.0358,4.0293,4.049,4.0419,4.0434,4.0474,4.0496,4.0513,4.0507,4.0221,0,0,0,0,0,3.999,4.0055,4.0078,4.0182,4.0201,4.0206,4.0243,4.0231,4.027,4.0286,4.0306,4.0347,4.0411,4.0454,4.0515,4.0646,4.0655,4.0707,4.0724,4.0739,4.0753,4.0826,4.0849,4.0596,4.0596,4.0596,0,0,4.0056,4.008,4.0123,4.0198,4.0226,4.0296,4.022,4.0296,4.0349,4.0298,4.0399,4.0416,4.046,4.058,4.0634,4.0599,4.0825,4.0753,4.0764,4.077,4.0839,4.0863,4.0885,4.0603,4.0602,4.0601,0,0,4.0212,4.0236,4.0326,4.0355,4.0397,4.04,4.0422,4.0456,4.0465,4.0566,4.053,4.0593,4.0704,4.0737,4.0769,4.0939,4.0909,4.096,4.1052,4.1123,4.1143,4.1161,4.1223,4.1246,4.0973,4.0973,4.0974,0,4.0289,4.0392,4.0376,4.0456,4.0491,4.0447,4.0539,4.0568,4.0629,4.0655,4.0615,4.0754,4.0781,4.0909,4.095,4.0977,4.1003,4.0955,4.1141,4.1158,4.1175,4.1234,4.1258,4.0979,4.0979,4.0978,4.0978,0,4.0485,4.0557,4.0625,4.0683,4.0726,4.0812,4.0811,4.0856,4.0841,4.0848,4.0953,4.0983,4.105,4.1079,4.1065,4.1206,4.1183,4.1142,4.1071,4.1205,4.1261,4.1284,4.0988,4.0986,4.0984,4.0983,0,0,4.0695,4.0744,4.0769,4.0796,4.084,4.0896,4.0981,4.1044,4.1085,4.1128,4.12,4.1296,4.1258,4.1294,4.1284,4.1346,4.1482,4.1298,4.1299,4.1333,4.1641,4.1672,4.1699,4.1462,4.1466,4.1469,4.1638,0,4.0854,4.1,4.0989,4.1127,4.1194,4.1153,4.1227,4.1263,4.1273,4.1333,4.1343,4.1412,4.1356,4.1378,4.1438,4.1453,4.1544,4.144,4.1531,4.1534,4.1522,4.1728,4.1761,4.1919,4.1659,4.1663,4.1666,0,4.106,4.111,4.1255,4.129,4.1318,4.1384,4.1443,4.1499,4.154,4.1543,4.1584,4.1563,4.1651,4.1576,4.1698,4.1628,4.1664,4.1677,4.1683,4.1692,4.1609,4.1744,4.1968,4.1993,4.1699,4.1697,4.1694,0,4.12,4.1304,4.1404,4.1428,4.1471,4.1519,4.154,4.1576,4.1616,4.1668,4.1694,4.1755,4.179,4.1839,4.1837,4.1782,4.1961,4.1885,4.1967,4.1967,4.2007,4.2005,4.2242,4.2029,4.2028,4.2028,4.2027,0,4.1381,4.1471,4.1468,4.153,4.1631,4.1618,4.1719,4.1734,4.1767,4.1833,4.1802,4.1864,4.1857,4.192,4.1919,4.2021,4.2037,4.2043,4.2042,4.2046,4.2046,4.2071,4.2061,4.2034,4.2033,4.2031,4.203,0,4.1555,4.1556,4.1663,4.1695,4.1705,4.1779,4.1807,4.1867,4.1873,4.1957,4.1976,4.1987,4.2061,4.2063,4.2147,4.2147,4.2272,4.2257,4.2258,4.2255,4.2338,4.2331,4.26,4.2636,4.2398,4.24,4.2402,0,4.1671,4.1739,4.1779,4.182,4.1843,4.191,4.195,4.194,4.1984,4.2036,4.209,4.216,4.2216,4.2336,4.2353,4.2418,4.2406,4.2496,4.2416,4.2419,4.241,4.2406,4.2414,4.2512,4.2515,4.2517,4.2519,0,4.1876,4.1874,4.1932,4.1992,4.204,4.2087,4.213,4.2166,4.2161,4.2212,4.2286,4.2329,4.2416,4.2487,4.255,4.2573,4.2547,4.2544,4.2567,4.2573,4.2571,4.2575,4.2302,4.2538,4.2536,4.2535,4.2534,4.2533,4.2026,4.2086,4.2123,4.219,4.2221,4.2262,4.232,4.2334,4.2395,4.2464,4.2455,4.2538,4.2579,4.2661,4.2689,4.2755,4.2724,4.2757,4.2765,4.2774,4.2784,4.2559,4.2767,4.2766,4.2766,4.2765,4.2765,0,4.2232,4.2254,4.2315,4.2376,4.2429,4.2397,4.2444,4.2491,4.2564,4.2604,4.2659,4.2745,4.2814,4.2837,4.2904,4.2953,4.2943,4.2971,4.2968,4.2975,4.2806,4.2781,4.2979,4.2978,4.2978,4.2978,4.2978,4.2978,4.2345,4.2445,4.2447,4.2563,4.2585,4.2665,4.2694,4.2733,4.2765,4.2862,4.2919,4.2932,4.2966,4.3035,4.3098,4.3103,4.313,4.3164,4.3165,4.3008,4.2986,4.2966,4.2942,4.317,4.317,4.3327,4.3329,4.333]},{"header":{"parameterUnit":"m.s-1","parameterCategory":1,"la1":30.2991,"la2":30.254,"lo1":-89.0895,"lo2":-89.0444,"dy":0.0017,"dx":0.0017,"nx":28,"ny":28,"refTime":"2024-08-02T09:00:00:Z","depth":0,"parameterNumber":3,"parameterNumberName":"V-component_of_WINDS"},"data":[0,0,0,0,0,0,0,0,0,0,0,0,0,0,0,0,0,0,0,0,0,0,0,0,0,0,0,0,0,0,0,0,0,0,0,0,0,0,0,0,0,0,0,0,0,0,0,0,0,0,0,0,0,0,0,0,0,0,-1.1019,-1.1018,0,-1.0978,-1.0977,-1.0977,-1.0996,-1.0997,-1.0998,-1.0999,-1.0952,-1.0949,-1.0947,0,0,0,0,0,0,0,0,0,0,0,0,0,-1.1109,-1.1107,-1.1019,-1.1018,-1.1018,-1.0978,-1.0977,-1.0977,-1.0996,-1.0997,-1.0999,-1.1,-1.0952,-1.095,-1.0947,0,0,0,0,0,0,0,0,0,0,0,0,0,-1.1069,-1.1107,-1.1019,-1.1023,-1.1023,-1.0978,-1.0977,-1.0977,-1.0996,-1.0997,-1.0999,-1.1001,-1.0953,-1.095,-1.0947,-1.0894,0,0,-1.0936,-1.0935,0,0,0,0,0,0,0,0,-1.1071,-1.1065,-1.1023,-1.1022,-1.1022,-1.0994,-1.0992,-1.0949,-1.0995,-1.1006,-1.0999,-1.1001,-1.0964,-1.096,-1.0949,-1.0892,-1.089,-1.0936,-1.0934,-1.0932,-1.0931,0,0,0,0,0,0,0,-1.1074,-1.1067,-1.1002,-1.1022,-1.1022,-1.1025,-1.1021,-1.0984,-1.0976,-1.1005,-1.1006,-1.1002,-1.0964,-1.0952,-1.0948,-1.0889,-1.0936,-1.0933,-1.0931,-1.093,-1.0788,-1.0786,0,0,0,0,0,0,-1.1077,-1.107,-1.1004,-1.1001,-1.1051,-1.1022,-1.1018,-1.1001,-1.0977,-1.0975,-1.1,-1.1003,-1.0957,-1.0951,-1.0946,-1.0883,-1.0932,-1.0929,-1.0927,-1.079,-1.0788,-1.0786,0,0,0,0,0,0,-1.1079,-1.1071,-1.1005,-1.1036,-1.1028,-1.1019,-1.1,-1.1,-1.0987,-1.0973,-1.0972,-1.0989,-1.0958,-1.0951,-1.0907,-1.0881,-1.0928,-1.0925,-1.0792,-1.0789,-1.0787,-1.0756,0,0,0,0,0,0,-1.1082,-1.1072,-1.1052,-1.1035,-1.1026,-1.0968,-1.0999,-1.0998,-1.0982,-1.0985,-1.0962,-1.096,-1.0958,-1.0912,-1.0904,-1.0877,-1.0922,-1.0794,-1.079,-1.0787,-1.0759,-1.0753,-1.0747,0,0,0,0,0,-1.1085,-1.1044,-1.1051,-1.1043,-1.1002,-1.0967,-1.0961,-1.0962,-1.098,-1.096,-1.0951,-1.0961,-1.0886,-1.0908,-1.0898,-1.0871,-1.0795,-1.0791,-1.0788,-1.0762,-1.0754,-1.0747,0,0,0,0,0,0,-1.1055,-1.1041,-1.105,-1.1002,-1.0986,-1.097,-1.0945,-1.0953,-1.093,-1.0933,-1.0933,-1.0928,-1.0883,-1.0873,-1.0897,-1.0819,-1.0843,-1.0837,-1.0827,-1.0819,-1.0813,-1.0816,-1.0919,0,0,0,0,0,-1.1044,-1.1018,-1.1007,-1.0966,-1.0958,-1.0953,-1.0937,-1.094,-1.0922,-1.0914,-1.0903,-1.0883,-1.0856,-1.0837,-1.0811,-1.0759,-1.0754,-1.0735,-1.0729,-1.0724,-1.0718,-1.069,-1.0682,-1.0773,-1.0773,-1.0773,0,0,-1.1018,-1.1008,-1.0991,-1.096,-1.0947,-1.092,-1.0947,-1.0915,-1.0894,-1.0909,-1.0868,-1.0859,-1.0838,-1.079,-1.0768,-1.078,-1.0693,-1.0719,-1.0715,-1.0712,-1.0685,-1.0677,-1.0669,-1.077,-1.0771,-1.0771,0,0,-1.0958,-1.0948,-1.0913,-1.0901,-1.0883,-1.0881,-1.0873,-1.0856,-1.0851,-1.0811,-1.0822,-1.0796,-1.0749,-1.0733,-1.0719,-1.0656,-1.0664,-1.0648,-1.0615,-1.0588,-1.058,-1.0574,-1.0551,-1.0542,-1.0643,-1.0642,-1.0642,0,-1.0928,-1.0888,-1.0893,-1.0862,-1.0848,-1.0864,-1.0828,-1.0815,-1.0789,-1.0778,-1.0792,-1.0734,-1.0721,-1.067,-1.0655,-1.0643,-1.0633,-1.0649,-1.0581,-1.0575,-1.0569,-1.0547,-1.0538,-1.0641,-1.0641,-1.0641,-1.0641,0,-1.0852,-1.0824,-1.0798,-1.0775,-1.0758,-1.0725,-1.0724,-1.0706,-1.0711,-1.0707,-1.0665,-1.0651,-1.0622,-1.0611,-1.0614,-1.056,-1.0568,-1.0582,-1.0606,-1.0558,-1.0537,-1.0529,-1.0638,-1.0638,-1.0639,-1.064,0,0,-1.0768,-1.0751,-1.0741,-1.0732,-1.0714,-1.0692,-1.066,-1.0635,-1.0619,-1.0601,-1.0573,-1.0534,-1.0547,-1.0531,-1.0533,-1.051,-1.046,-1.0526,-1.0526,-1.0514,-1.04,-1.0389,-1.0379,-1.0467,-1.0465,-1.0464,-1.0402,0,-1.0706,-1.0651,-1.0656,-1.0603,-1.0577,-1.0593,-1.0565,-1.0551,-1.0547,-1.0523,-1.0518,-1.049,-1.0511,-1.0501,-1.0479,-1.0471,-1.0437,-1.0476,-1.0439,-1.0438,-1.0442,-1.0368,-1.0355,-1.0297,-1.0394,-1.0392,-1.0391,0,-1.0624,-1.0607,-1.0552,-1.0541,-1.053,-1.0504,-1.0482,-1.046,-1.0445,-1.0444,-1.0428,-1.0434,-1.0401,-1.0428,-1.0381,-1.0408,-1.0393,-1.0387,-1.0385,-1.038,-1.041,-1.0359,-1.0278,-1.0269,-1.0379,-1.038,-1.038,0,-1.0568,-1.053,-1.0493,-1.0484,-1.047,-1.0452,-1.0444,-1.0431,-1.0416,-1.0396,-1.0386,-1.0362,-1.0349,-1.033,-1.0329,-1.035,-1.0282,-1.0309,-1.0279,-1.0278,-1.0261,-1.0262,-1.0175,-1.0255,-1.0255,-1.0255,-1.0256,0,-1.0496,-1.0462,-1.0467,-1.0444,-1.0406,-1.0413,-1.0374,-1.0369,-1.0358,-1.0333,-1.0345,-1.0321,-1.0324,-1.0299,-1.0299,-1.026,-1.0254,-1.0251,-1.0251,-1.0249,-1.0249,-1.0237,-1.0241,-1.0253,-1.0254,-1.0254,-1.0254,0,-1.0425,-1.0428,-1.0388,-1.0379,-1.0376,-1.0348,-1.034,-1.0318,-1.0316,-1.0285,-1.0278,-1.0274,-1.0247,-1.0246,-1.0213,-1.0213,-1.0165,-1.0171,-1.0171,-1.0171,-1.014,-1.0143,-1.0042,-1.0028,-1.0118,-1.0118,-1.0117,0,-1.0378,-1.0353,-1.0342,-1.0328,-1.032,-1.0296,-1.0282,-1.0288,-1.0272,-1.0255,-1.0234,-1.0208,-1.0188,-1.0143,-1.0136,-1.0112,-1.0115,-1.0082,-1.0111,-1.011,-1.0113,-1.0114,-1.0111,-1.0075,-1.0074,-1.0073,-1.0073,0,-1.0295,-1.0298,-1.0278,-1.0259,-1.0242,-1.0226,-1.0212,-1.0199,-1.0204,-1.0185,-1.0159,-1.0143,-1.0112,-1.0085,-1.0062,-1.0053,-1.0063,-1.0064,-1.0055,-1.0052,-1.0053,-1.0051,-1.0153,-1.0065,-1.0066,-1.0067,-1.0067,-1.0067,-1.0233,-1.0212,-1.0202,-1.0179,-1.017,-1.0157,-1.0136,-1.0133,-1.0112,-1.0088,-1.0093,-1.0063,-1.0049,-1.0019,-1.0009,-0.9985,-0.9996,-0.9984,-0.998,-0.9977,-0.9973,-1.0059,-0.9981,-0.9981,-0.9981,-0.9981,-0.9982,0,-1.0149,-1.0145,-1.0124,-1.0105,-1.0088,-1.0102,-1.0088,-1.0071,-1.0045,-1.0033,-1.0014,-0.9983,-0.9959,-0.9952,-0.9928,-0.991,-0.9914,-0.9903,-0.9903,-0.9901,-0.9965,-0.9974,-0.99,-0.99,-0.99,-0.99,-0.99,-0.99,-1.0104,-1.0068,-1.007,-1.003,-1.0025,-0.9998,-0.9988,-0.9976,-0.9967,-0.9933,-0.9913,-0.991,-0.99,-0.9876,-0.9854,-0.9852,-0.9842,-0.9829,-0.983,-0.9888,-0.9897,-0.9904,-0.9913,-0.9828,-0.9827,-0.9768,-0.9767,-0.9767]}]]